Theta_e
340 341 348 347 346 338 337 344 341 343 341 342 340 336 336 337 340 340 341 341 340 338 336 334 333 333 333 334 337 340 341 341 342 342 343 343 344 344 345 344 344 344 344 343 342 341 337 332 329 328 329 332 335 333 333 335 336 336 336 336 337 337 338 338 338 338 337 335 332 329 325 320 317 317 316 316 315 315 317 316 318 333 338 322 310
340 342 348 348 346 337 338 344 341 342 339 342 342 337 336 336 338 337 339 338 336 334 333 333 332 332 332 336 340 342 341 342 343 343 344 344 344 344 344 344 344 343 342 341 340 339 336 334 333 330 327 332 337 333 331 333 333 334 333 333 333 333 333 332 332 331 329 327 324 322 319 317 315 315 315 314 315 315 316 315 321 338 336 315 312
341 344 348 348 346 338 339 343 342 342 339 343 343 340 338 338 337 336 339 337 336 334 333 333 332 331 333 339 342 343 343 344 344 343 344 344 344 343 344 343 343 341 338 337 336 336 334 333 331 327 323 327 335 335 331 331 332 332 333 334 335 334 334 332 331 330 329 329 328 330 331 328 322 316 317 318 316 315 315 313 315 329 327 310 314
342 345 347 348 346 339 339 343 342 341 340 342 343 342 341 341 340 339 341 339 338 336 336 334 332 331 335 340 342 343 343 344 344 344 344 344 344 343 343 342 341 340 337 336 335 335 335 335 332 328 325 323 327 333 332 330 333 334 335 336 336 336 335 334 333 332 332 332 333 338 338 336 333 323 319 321 318 315 313 312 310 315 315 308 313
343 345 347 349 345 339 340 343 342 341 340 341 341 342 342 343 342 342 342 341 340 339 337 334 332 331 335 340 342 343 344 344 344 344 344 343 342 341 341 341 341 340 338 334 334 333 334 336 335 330 327 325 323 327 332 333 334 335 336 335 335 334 334 334 333 333 333 332 334 338 335 335 338 330 321 321 320 316 314 313 313 311 312 310 311
343 345 347 347 345 341 341 342 342 341 340 341 341 340 342 343 342 342 342 341 341 340 338 334 333 332 335 339 341 343 344 345 344 344 343 342 340 339 340 340 340 338 333 328 327 326 325 327 328 325 324 325 322 322 325 332 335 334 335 334 334 333 333 333 332 332 331 334 336 336 334 334 336 334 325 323 323 321 319 317 316 314 314 312 315
343 344 347 345 344 342 342 341 341 340 338 341 340 339 341 342 343 342 342 342 341 341 339 336 335 336 337 338 340 343 343 344 344 343 341 339 338 339 338 336 334 332 328 324 323 324 327 327 324 323 322 322 321 320 318 323 331 334 334 333 333 333 333 333 333 332 331 335 338 334 334 334 335 336 328 324 324 324 324 321 323 320 317 314 317
343 345 346 344 344 342 342 340 341 339 336 341 339 337 340 342 343 342 342 342 341 341 340 339 338 338 339 338 338 341 344 343 344 342 340 339 337 335 333 331 329 328 327 325 324 326 332 333 330 327 324 322 321 319 317 317 324 330 332 332 332 333 333 333 333 331 331 336 337 333 334 334 335 336 331 326 324 325 324 324 333 331 324 318 316
343 345 345 345 345 341 341 340 341 338 336 341 337 335 340 342 343 342 342 341 341 341 340 340 340 339 339 338 336 338 343 343 343 343 342 342 339 335 332 330 329 328 327 325 325 327 329 332 333 331 326 322 320 318 317 317 321 327 330 331 332 332 333 333 332 332 334 336 334 334 335 333 334 335 333 330 325 326 324 326 337 338 330 322 317
344 346 346 345 345 341 340 340 339 337 336 340 337 337 341 342 342 342 342 341 341 341 340 340 340 340 339 337 335 337 342 343 343 343 343 343 342 339 337 335 330 328 327 325 327 327 327 329 331 330 325 322 322 321 321 322 325 328 330 332 333 332 332 333 334 335 335 334 333 335 335 332 334 336 333 331 329 328 325 325 331 333 329 323 319
345 347 346 344 345 341 339 339 339 338 336 338 339 339 342 342 342 342 341 341 341 341 340 340 340 340 339 337 334 335 339 341 343 342 342 342 341 341 340 339 334 331 327 324 327 328 328 329 329 327 325 324 324 325 325 327 328 330 330 331 332 331 330 332 335 336 334 334 334 335 335 333 336 337 332 331 332 330 328 326 326 326 325 322 321
345 346 345 344 345 341 340 339 338 338 337 338 340 340 342 342 342 342 341 342 341 341 340 341 341 339 338 337 335 333 336 339 340 341 341 341 341 341 340 339 337 334 330 325 326 328 329 330 330 328 327 326 326 326 326 328 328 329 330 330 330 330 329 330 335 336 333 333 334 335 336 336 338 337 332 332 332 332 331 329 327 326 325 324 323
345 345 344 346 344 340 340 339 337 339 339 339 340 341 342 342 342 342 341 341 341 341 341 340 339 337 336 336 335 334 334 335 335 336 338 339 340 340 339 339 338 336 332 326 324 327 328 329 329 329 328 328 327 327 327 327 328 328 328 328 328 328 327 327 333 335 333 333 333 334 335 336 338 334 331 333 332 332 332 331 330 328 327 326 324
344 345 344 345 345 341 339 338 339 340 340 340 340 342 342 342 341 341 341 341 341 341 339 338 337 335 335 335 335 334 334 334 334 333 334 336 339 339 339 338 336 335 333 327 324 325 326 326 326 325 324 325 325 326 326 326 326 327 327 326 326 326 325 328 334 333 332 333 333 333 333 336 336 331 329 333 333 333 332 332 332 330 328 327 326
344 345 344 344 345 342 339 338 340 341 340 340 341 342 341 342 341 340 341 340 340 340 337 336 334 334 335 335 335 334 333 334 334 333 333 334 335 337 338 335 331 331 330 327 325 324 324 324 324 323 323 324 323 323 324 324 324 324 325 324 324 324 324 328 334 331 331 332 332 333 332 334 335 330 329 332 333 333 333 332 333 334 333 332 331
344 344 344 344 344 343 340 339 341 341 340 340 341 342 342 342 341 340 339 339 339 335 331 330 331 333 334 334 334 333 333 334 333 333 333 332 333 333 333 329 324 325 325 326 325 324 324 323 324 324 324 324 323 322 321 322 323 323 323 323 323 323 322 324 333 333 330 331 330 331 331 333 335 332 330 331 332 333 334 333 333 335 337 337 335
344 344 344 344 343 343 342 341 341 340 340 341 342 342 342 342 341 339 338 338 335 327 323 324 327 329 330 330 329 329 330 331 330 330 330 329 330 328 323 321 321 323 324 325 325 323 324 324 324 325 324 323 322 320 322 326 327 326 325 325 324 324 323 323 330 333 331 333 331 331 332 333 334 332 332 332 332 332 333 334 333 334 336 338 336
344 344 344 343 343 342 342 342 342 342 341 341 341 342 341 342 341 338 336 334 327 319 318 320 322 322 321 320 318 318 320 320 319 320 322 321 323 322 320 319 320 321 323 324 324 324 324 324 324 323 321 320 319 320 324 329 331 332 331 329 326 325 324 322 328 332 332 334 332 331 333 334 334 332 332 333 333 333 333 333 334 333 334 336 336
343 343 344 343 343 342 342 343 343 343 343 342 342 342 341 342 340 337 334 327 319 316 316 318 320 319 319 318 316 316 314 313 313 312 313 313 314 316 315 314 315 316 317 318 319 320 321 322 323 323 323 322 323 324 327 331 333 334 335 333 331 328 326 326 330 332 330 333 333 333 334 335 334 333 333 334 334 334 334 334 334 334 333 335 336
343 343 343 342 343 342 342 343 343 343 343 343 343 343 342 341 339 335 330 322 317 317 317 320 324 326 326 326 327 328 326 324 324 322 320 319 318 319 318 317 317 315 314 314 316 319 322 326 329 331 333 332 332 332 333 333 334 335 336 336 335 334 334 335 335 333 332 333 334 334 335 336 336 335 335 335 336 335 335 335 335 334 334 335 337
342 343 342 341 341 341 342 342 343 343 343 344 344 344 342 341 338 334 326 319 319 319 322 327 330 332 331 332 335 336 336 336 336 335 334 333 332 332 332 331 330 327 325 324 326 329 332 335 337 337 337 337 336 337 338 337 336 336 336 336 336 338 339 340 339 337 336 335 336 336 336 337 336 337 336 336 336 336 336 336 335 336 336 337 338
341 341 341 341 341 342 342 342 343 342 343 344 344 345 342 341 339 335 327 322 323 324 330 334 335 335 334 336 338 337 338 339 340 340 340 339 338 338 338 338 337 337 335 334 335 336 337 338 338 338 338 337 337 340 341 339 338 337 336 336 338 339 339 339 339 337 337 336 337 337 337 337 336 337 336 337 336 336 336 336 337 339 340 340 339
341 341 341 341 341 342 342 342 343 343 344 344 345 344 342 341 340 337 334 331 331 333 336 337 337 337 336 338 338 338 339 340 341 341 340 340 338 338 338 338 338 338 338 338 337 337 338 338 337 337 336 336 337 339 338 337 338 337 337 338 338 338 337 337 336 336 335 335 336 336 336 336 336 336 335 336 336 336 336 336 338 340 341 341 340
342 341 341 341 341 342 342 342 343 343 343 344 344 344 343 342 340 337 336 337 337 337 338 337 337 337 337 338 339 340 340 341 341 340 340 341 339 339 339 339 339 338 339 340 340 339 338 338 337 336 336 336 336 337 335 335 337 336 337 337 336 336 335 335 334 334 334 334 335 335 333 333 333 333 334 335 335 336 337 337 338 339 340 339 340
342 341 342 341 341 342 342 342 343 343 343 343 344 343 343 342 340 337 336 337 337 337 337 337 337 338 339 338 339 340 340 341 342 341 342 342 342 342 342 341 342 341 340 341 341 340 339 338 338 336 336 336 335 336 335 335 335 335 335 335 335 335 334 334 333 333 332 332 333 333 331 331 331 331 332 333 334 335 336 337 338 338 339 340 339
342 341 342 341 341 342 341 342 343 342 342 343 343 343 343 342 340 338 336 337 337 337 337 337 337 339 339 339 340 340 340 341 342 342 342 342 343 343 343 343 342 341 340 340 339 339 338 338 337 336 336 335 335 335 335 335 334 333 334 335 335 334 334 333 332 332 332 332 333 333 331 330 331 331 331 332 332 333 335 336 337 338 339 339 338
342 341 342 341 341 341 341 341 343 342 343 343 343 343 343 342 340 338 336 336 337 337 337 337 338 339 339 340 341 340 340 341 342 342 342 342 343 343 343 342 341 340 340 339 338 338 338 337 337 336 335 334 334 334 333 334 334 333 333 334 334 334 333 332 332 332 332 332 334 333 331 331 332 332 333 333 333 333 335 336 336 337 337 338 337
342 341 341 341 340 341 341 341 342 342 343 343 343 343 342 342 341 338 337 336 337 337 337 337 338 339 340 340 341 340 340 341 341 342 342 343 344 343 342 341 340 339 339 338 338 338 337 337 337 336 335 333 334 334 333 332 333 333 332 333 333 333 333 333 333 333 333 333 334 333 330 330 331 331 332 333 333 333 334 335 335 335 336 336 336
342 341 341 340 340 340 340 341 341 342 343 343 343 342 342 342 341 339 337 337 337 338 338 338 338 339 340 340 340 341 341 341 342 342 342 343 344 343 341 340 340 339 339 339 338 338 337 337 336 335 334 333 334 333 332 331 331 332 331 332 333 334 334 334 334 334 334 333 334 334 329 327 328 329 329 330 330 331 333 333 333 334 334 334 335
342 341 340 340 339 340 340 340 341 342 342 342 342 342 342 342 341 339 338 337 337 339 339 339 339 339 340 340 340 341 342 341 342 342 342 343 343 342 341 340 340 339 339 338 338 338 337 336 336 335 334 333 332 332 332 331 330 332 332 332 333 333 333 333 333 333 333 333 333 334 331 328 327 327 327 328 328 329 331 331 331 332 332 332 333
342 341 340 340 339 339 339 340 341 342 342 342 342 342 342 341 341 340 338 337 338 340 340 339 340 339 340 341 341 342 342 342 342 342 343 343 343 342 340 340 339 339 338 338 338 338 337 336 336 336 335 333 332 332 332 332 332 333 332 333 333 332 332 332 332 332 332 332 332 333 332 330 329 327 327 327 327 327 329 330 330 331 331 331 332
342 341 340 340 339 338 338 339 341 342 342 342 342 342 342 341 341 339 338 338 338 339 340 340 340 340 341 341 341 341 342 342 342 342 343 343 342 341 340 339 339 338 338 338 337 337 337 336 335 336 335 333 332 332 333 333 333 333 332 332 332 332 331 331 331 331 331 331 332 331 331 330 330 329 327 326 326 325 327 328 329 330 330 330 331
342 341 341 340 339 338 338 339 341 342 342 341 342 341 341 341 340 339 338 338 339 339 340 340 340 340 340 341 341 341 342 342 342 342 343 343 342 341 340 339 338 338 338 337 336 336 335 335 334 334 333 332 333 333 333 333 332 333 332 331 331 331 331 330 330 331 331 331 330 330 329 329 329 329 328 327 325 322 323 325 325 326 327 328 329
342 341 341 340 339 338 337 338 340 342 342 341 341 341 341 340 340 340 339 339 339 339 340 341 340 340 340 341 341 341 341 342 341 342 343 343 341 340 340 339 338 337 337 336 334 334 334 334 333 333 333 332 333 333 332 332 332 332 332 331 332 331 330 330 330 330 330 330 329 328 328 328 328 328 327 327 325 320 319 321 322 323 325 325 326
342 342 341 340 339 339 337 338 340 341 341 341 341 341 341 340 340 340 339 338 339 339 340 341 340 339 340 340 341 341 342 342 342 342 343 342 341 340 340 339 338 336 336 335 334 334 334 333 333 332 333 333 332 332 332 332 332 332 331 331 332 332 331 330 330 330 329 329 328 327 326 326 326 326 326 326 326 322 318 318 320 322 323 323 323
342 342 341 340 339 338 337 338 340 341 341 340 340 341 341 340 340 339 339 339 339 340 341 340 340 340 340 340 341 342 342 342 342 342 342 341 340 340 340 339 337 336 335 335 334 334 333 332 332 332 333 332 332 332 331 332 332 332 331 331 332 331 330 329 329 329 328 328 326 325 324 324 324 324 324 324 324 324 320 318 319 321 321 321 321
343 343 341 340 339 338 337 339 340 340 339 339 340 340 340 340 340 339 339 339 339 340 341 340 340 340 340 340 341 342 342 342 343 343 342 341 341 339 339 338 337 336 335 335 334 333 333 332 332 331 332 333 332 332 331 332 332 331 331 331 331 330 330 328 328 328 328 326 325 323 322 321 322 322 322 322 322 322 321 320 321 321 321 319 319
342 342 341 340 339 338 338 339 340 339 338 339 339 339 339 340 340 340 339 339 339 340 340 340 340 340 340 340 341 342 341 342 342 342 341 340 340 338 338 337 336 336 335 334 334 333 332 331 331 331 332 332 332 332 332 332 332 331 331 331 331 330 329 327 327 327 327 326 324 322 322 321 320 321 321 320 320 320 321 321 321 321 321 319 317
341 341 341 339 339 338 338 338 338 338 338 338 339 339 340 340 340 340 339 339 339 340 340 340 340 340 340 340 341 341 341 341 341 341 340 340 339 338 337 337 336 335 334 334 334 333 332 331 331 330 331 331 332 332 332 331 332 331 331 331 330 329 328 327 326 327 326 325 324 322 322 321 320 320 319 318 318 318 318 319 320 320 320 319 317
342 341 341 339 339 338 337 337 337 337 337 338 338 339 339 339 339 339 338 338 339 340 340 340 340 340 340 340 341 341 341 341 341 340 340 339 338 337 337 336 334 334 334 334 333 332 331 330 330 330 330 331 331 331 331 332 331 331 331 332 331 329 328 326 325 325 326 325 324 323 322 321 320 319 318 316 316 316 316 317 318 318 319 318 318
343 342 341 340 339 338 338 337 336 336 337 337 338 339 339 338 338 338 338 338 339 339 340 339 339 340 340 340 340 340 341 341 340 339 339 338 337 337 336 334 333 333 333 332 331 331 330 330 330 329 330 331 330 330 330 331 330 330 331 331 331 329 327 326 324 324 324 324 324 323 321 320 319 318 317 315 314 314 315 315 316 317 317 317 317
343 342 340 340 339 339 338 337 336 336 337 337 338 339 338 338 338 338 338 338 339 339 340 339 339 339 340 340 339 339 340 340 339 338 338 337 336 336 335 333 332 332 331 331 330 330 330 329 329 329 329 330 330 329 328 329 328 327 328 329 330 329 327 326 325 323 323 323 323 323 321 320 319 317 316 313 312 312 313 313 315 315 316 315 316
344 342 341 340 339 339 337 336 336 336 336 337 338 339 338 338 338 338 338 338 339 339 339 339 339 339 339 339 338 338 339 339 338 337 337 336 336 335 333 332 331 331 330 330 329 329 329 329 328 329 329 328 329 328 327 327 327 328 329 327 327 329 330 327 324 324 322 322 323 322 321 320 318 316 314 313 312 311 312 312 313 314 314 314 315
344 342 342 340 339 338 337 336 336 336 336 337 338 338 338 338 337 337 338 338 338 339 339 339 338 338 338 338 337 338 338 337 336 336 335 335 335 333 332 330 330 330 329 329 329 329 328 328 327 328 329 328 328 327 326 326 327 328 327 326 325 325 327 325 323 325 323 322 321 321 321 319 317 315 313 312 311 310 310 311 311 313 313 313 314
344 343 342 340 339 338 337 337 337 336 336 337 337 337 337 337 336 337 338 339 339 339 339 338 337 337 337 337 337 337 337 336 335 335 335 334 333 332 331 330 330 329 329 328 329 328 328 327 327 328 328 329 328 327 327 326 325 326 326 326 327 325 323 322 323 325 323 322 321 320 320 319 317 315 311 310 310 309 308 309 310 311 312 312 312
344 343 341 341 340 339 339 338 338 337 336 337 337 336 336 336 336 337 338 339 339 338 338 337 337 336 336 336 337 336 336 335 335 334 334 333 332 331 330 329 329 328 328 328 327 327 327 328 328 327 327 327 327 326 326 326 324 324 324 324 325 324 323 322 322 322 323 322 321 320 319 318 317 315 311 309 308 308 308 308 309 310 311 310 311
343 342 342 341 341 340 339 339 337 337 336 336 335 334 335 336 336 338 339 339 339 338 337 336 336 336 335 336 336 335 334 334 334 334 333 332 331 330 329 329 328 327 327 327 327 326 327 327 327 326 326 326 326 324 324 324 324 323 322 322 321 321 321 321 320 320 321 321 321 320 318 317 317 314 310 309 308 308 309 308 308 309 310 309 310
343 342 342 342 342 340 338 338 337 337 337 336 335 331 332 336 338 339 340 339 339 338 337 336 336 336 335 335 335 334 334 334 333 332 331 331 330 329 329 328 327 327 326 326 326 326 326 326 325 325 324 324 325 324 322 322 323 323 322 321 320 320 319 319 319 319 319 319 319 319 316 317 317 312 309 309 308 308 309 309 308 308 309 309 309
343 342 342 341 339 337 336 337 337 338 337 337 334 328 327 334 338 339 340 339 339 338 337 336 335 335 335 334 334 334 334 333 332 331 330 330 329 328 328 327 326 326 326 326 325 325 325 325 325 324 324 323 322 322 322 321 321 322 321 321 320 320 320 318 318 318 318 317 318 317 316 317 318 311 308 309 309 308 309 309 308 308 308 308 308
343 342 342 338 334 334 335 336 337 338 337 337 332 324 325 333 338 340 340 338 338 337 336 336 335 335 334 334 334 334 333 332 331 330 329 328 328 327 327 327 326 325 325 325 325 324 323 323 323 323 322 322 321 320 321 320 320 320 320 319 319 319 319 318 317 317 318 317 317 316 315 316 315 310 308 309 309 308 309 308 308 308 308 307 307
342 343 342 336 332 334 335 335 337 337 337 337 333 327 329 335 337 339 340 338 336 336 335 336 335 334 334 334 334 333 332 331 330 329 328 328 327 327 326 326 325 324 324 324 323 322 322 322 321 321 320 320 320 319 319 319 318 318 317 317 316 316 317 317 316 316 316 315 315 313 313 314 311 307 308 309 309 308 308 308 307 307 307 307 307
Wind_Speed
18 20 20 23 23 23 21 18 18 18 19 18 19 21 20 19 18 18 19 18 18 18 18 17 17 16 15 15 14 14 14 15 14 14 14 14 15 15 14 14 15 14 14 14 13 13 13 12 12 12 11 10 9 9 11 11 10 10 10 10 10 10 10 10 9 8 7 7 6 5 6 7 7 7 6 5 4 3 3 3 6 9 3 5 5
21 21 21 23 24 23 21 19 18 18 19 18 18 19 20 20 19 19 19 19 19 19 18 18 17 16 15 14 13 13 14 14 14 14 14 14 15 15 14 14 14 14 14 14 13 13 12 12 11 11 10 10 10 10 11 11 10 9 9 10 10 10 9 9 8 7 6 7 6 7 8 8 7 7 7 6 5 3 3 3 5 7 3 5 4
23 21 21 22 24 23 22 20 18 18 18 17 17 18 19 19 20 20 19 19 19 19 18 17 17 16 15 14 13 13 14 13 13 14 14 15 15 15 15 14 13 13 14 14 13 12 11 10 9 9 9 10 9 10 10 10 9 9 9 9 9 9 9 8 7 7 7 7 8 9 9 9 9 9 8 8 7 4 3 3 3 4 3 4 3
23 21 20 22 24 24 22 19 19 18 18 17 17 17 17 17 18 19 18 18 18 18 18 17 17 16 14 14 13 13 13 13 13 14 14 15 15 15 14 13 13 13 13 13 12 11 10 9 8 8 8 9 8 8 9 9 8 8 8 8 8 8 8 8 7 7 7 7 8 8 5 5 7 10 9 8 8 5 4 5 3 3 4 4 3
22 21 20 22 23 24 22 20 19 18 18 17 17 17 17 17 17 18 18 18 18 17 17 17 17 16 15 14 13 13 14 14 13 14 15 15 15 15 15 14 13 12 12 11 10 9 8 8 6 5 5 7 7 7 7 8 7 7 7 7 8 8 9 9 8 8 7 6 7 7 3 3 3 8 9 7 9 8 6 6 6 6 6 6 5
22 21 21 22 23 23 22 21 19 19 18 17 16 16 17 17 17 18 18 18 17 17 17 17 17 16 15 15 14 13 13 14 14 14 14 13 14 15 14 13 12 12 11 9 9 7 7 6 5 4 4 5 5 6 5 6 6 6 6 6 7 8 9 9 9 8 7 6 6 5 2 4 3 5 9 8 7 8 8 8 8 8 8 8 6
21 20 20 22 23 23 23 22 20 19 18 17 16 16 17 17 17 17 18 17 17 17 16 16 16 15 14 15 15 13 12 13 13 13 13 12 13 13 13 12 12 11 10 9 9 8 7 6 6 4 4 3 4 5 5 5 5 5 4 5 6 8 9 10 10 8 7 5 3 3 1 3 4 3 9 8 6 7 8 9 9 10 9 8 5
20 19 20 22 21 23 24 22 20 19 18 16 16 16 17 16 16 17 17 17 16 16 15 15 15 15 14 14 15 15 13 13 12 12 12 11 11 12 12 11 11 10 10 9 9 9 9 7 7 5 4 4 4 5 6 6 6 5 4 4 5 7 9 9 9 7 6 4 2 2 2 2 3 2 8 9 7 7 7 9 11 12 11 10 6
19 19 20 20 20 23 23 22 20 19 18 16 15 16 17 16 16 17 17 16 16 15 15 14 14 13 13 12 13 15 13 12 12 11 11 10 10 11 10 10 10 9 9 9 9 9 9 8 7 6 6 7 7 7 7 7 7 6 4 4 5 7 8 8 8 8 5 2 1 2 2 2 2 2 6 8 8 7 7 8 7 10 10 11 8
19 19 19 18 19 23 24 22 20 19 18 15 15 17 16 16 16 16 15 15 15 14 14 13 12 11 11 12 12 13 13 12 11 11 10 9 9 9 9 9 9 9 9 9 9 9 9 8 7 7 8 9 9 9 9 8 7 6 4 3 4 6 7 7 7 7 4 2 2 2 2 4 3 1 5 7 8 7 8 7 2 4 6 8 9
19 18 17 17 19 23 24 22 20 19 18 16 16 17 16 16 16 15 14 14 14 13 13 12 11 10 10 11 11 12 11 11 11 10 10 8 8 8 8 8 8 8 8 8 8 9 9 9 9 8 8 9 9 9 8 7 6 5 3 3 3 5 6 6 6 5 4 3 3 2 3 4 3 1 6 7 7 7 7 7 5 5 6 7 9
18 18 16 17 20 22 23 22 21 19 17 16 16 17 17 16 15 14 14 14 13 13 12 11 10 10 10 10 11 11 11 10 10 9 9 8 7 7 7 7 7 7 7 7 8 8 9 9 9 9 9 8 8 8 7 6 4 3 2 2 3 4 5 6 6 4 4 4 4 3 3 3 2 3 7 7 7 7 7 8 8 8 8 8 9
19 17 16 17 19 22 23 22 20 18 17 17 16 17 17 16 15 14 13 13 13 12 11 11 10 10 10 10 10 10 10 10 9 9 8 8 7 6 5 6 6 6 7 7 7 7 8 8 8 9 8 8 7 6 5 4 3 2 1 1 3 4 5 6 6 5 4 4 4 4 3 3 3 6 7 6 6 7 7 8 9 9 9 9 9
20 17 17 18 18 21 23 22 20 18 18 17 17 17 17 16 15 14 14 13 12 12 11 10 10 10 11 10 9 9 9 9 8 8 8 8 8 7 5 5 6 6 6 6 7 7 7 7 7 7 7 7 6 5 4 2 1 0 1 2 4 4 5 6 6 5 5 5 4 5 5 3 5 7 7 6 6 7 8 8 10 10 10 11 11
20 18 19 18 18 20 21 21 20 18 18 18 18 18 17 16 15 14 14 13 11 11 10 9 10 10 10 10 9 9 9 8 8 8 7 8 8 8 6 5 6 5 6 6 6 6 6 6 5 5 5 5 4 3 2 1 0 2 3 4 5 6 6 6 6 6 6 6 5 6 7 5 7 8 6 6 7 7 8 9 10 10 11 11 11
19 19 19 18 19 20 20 20 19 19 18 18 19 18 18 16 15 14 13 12 10 10 9 8 10 9 10 10 9 9 9 8 8 8 7 8 7 7 6 5 5 5 5 6 6 6 5 5 4 4 3 2 2 2 1 1 2 2 3 4 6 6 7 6 7 7 7 7 7 8 8 7 8 8 6 6 7 7 9 10 11 11 11 11 11
19 19 19 18 19 21 20 19 18 19 18 18 19 18 17 16 14 14 13 11 9 8 8 8 9 9 9 9 9 9 9 9 9 9 8 8 8 7 6 5 5 5 6 6 6 5 4 3 3 2 1 1 1 1 1 1 2 3 4 5 5 6 7 7 7 8 7 7 8 8 8 7 8 9 7 7 7 7 9 10 11 12 12 12 12
18 18 18 18 19 20 20 19 18 17 17 17 18 18 17 15 14 13 12 10 9 8 8 9 9 9 10 9 10 9 9 9 9 8 8 8 8 7 6 6 5 5 6 6 5 5 4 3 2 1 0 1 1 1 1 1 2 2 4 5 5 7 8 9 9 8 8 8 9 8 7 7 9 9 8 8 7 8 9 10 11 12 13 13 14
17 17 17 17 19 19 19 20 19 18 18 16 16 17 16 15 13 12 11 10 9 9 9 10 11 12 12 13 13 13 13 12 12 11 10 10 9 7 7 7 6 6 5 5 5 4 3 3 2 1 1 1 1 2 2 3 3 3 4 4 5 7 7 8 8 9 9 8 9 9 8 8 9 8 7 8 7 8 9 10 12 13 14 15 16
16 16 16 17 18 19 19 20 19 19 18 17 16 16 16 14 13 12 11 10 10 10 11 13 13 13 13 15 15 14 14 15 15 14 13 13 13 11 10 10 8 8 7 6 6 5 4 3 2 1 0 1 2 2 3 4 5 5 6 6 7 7 6 6 8 9 9 9 9 9 9 10 10 8 8 8 8 8 9 11 12 14 15 16 16
16 16 17 17 18 19 19 19 19 19 18 18 16 15 15 14 12 12 11 11 12 12 13 13 12 11 12 14 13 11 10 11 11 11 12 13 14 13 12 11 10 9 8 7 6 5 4 2 1 0 1 2 3 3 4 5 6 7 7 8 8 7 6 7 8 9 9 9 9 8 10 12 11 9 9 9 9 10 10 11 12 13 15 16 16
17 17 17 18 19 19 19 19 20 20 19 19 16 15 15 14 12 11 11 12 13 13 12 11 10 11 11 11 10 9 9 9 9 9 8 9 11 12 11 10 9 8 7 6 5 4 2 1 0 1 2 3 3 3 4 6 7 8 8 8 7 6 7 7 8 8 8 8 8 8 11 12 11 11 11 11 11 11 12 12 13 14 15 17 17
17 18 18 19 19 19 19 19 20 20 19 18 17 15 15 15 13 12 11 12 13 13 11 10 10 10 9 8 8 8 8 8 8 9 8 8 9 9 9 8 7 6 5 5 3 2 1 0 2 3 4 5 4 3 5 5 6 7 7 7 6 6 7 7 8 8 8 8 8 10 12 12 12 12 12 12 13 13 13 13 13 14 16 17 18
18 18 19 19 20 19 20 20 20 21 20 17 17 17 16 16 14 12 12 12 12 12 11 11 11 10 9 8 8 8 8 7 7 9 8 8 7 7 6 5 5 4 3 3 2 1 2 3 4 5 5 5 5 5 6 5 5 6 6 6 6 7 7 7 8 8 9 9 9 12 14 14 14 14 14 14 13 13 13 13 13 14 15 17 18
18 18 18 20 20 20 20 20 20 21 20 17 17 17 17 16 13 12 12 11 12 12 11 11 11 10 9 8 8 8 8 7 7 6 6 6 6 5 4 3 3 2 3 2 1 2 4 4 5 6 5 5 5 5 6 6 6 6 5 5 6 7 7 7 8 8 9 9 10 13 15 14 14 14 14 14 14 14 13 13 14 14 14 15 17
18 18 18 20 20 20 20 21 20 20 20 18 17 17 17 15 13 12 12 11 11 12 11 11 11 10 9 9 9 8 7 7 6 6 6 6 5 4 3 3 3 2 2 2 2 3 4 4 5 5 6 6 6 6 6 6 6 6 6 5 6 6 6 7 8 8 9 8 9 13 13 12 12 12 13 13 14 14 13 14 14 14 13 14 17
18 18 18 19 21 20 20 20 20 20 19 18 17 17 16 15 14 13 12 12 12 11 11 11 11 10 9 9 8 8 7 7 6 6 5 4 4 4 3 2 2 2 2 2 3 4 4 4 5 6 6 6 6 6 6 6 6 6 5 5 5 6 6 7 7 7 8 6 8 12 12 11 11 11 11 12 12 12 13 13 14 14 13 14 15
18 17 17 18 20 20 20 20 20 20 20 18 18 17 16 15 14 13 12 12 12 11 11 10 10 10 9 8 8 7 7 7 6 5 4 4 4 3 2 2 2 2 2 3 4 4 4 5 6 6 6 6 6 6 7 7 5 5 5 5 5 6 6 6 6 6 7 6 7 10 11 10 10 10 10 11 11 11 12 12 13 14 14 13 14
17 17 18 18 20 20 20 20 20 20 20 19 18 16 17 16 14 13 12 13 12 11 11 10 10 10 9 8 8 7 6 6 5 5 4 4 3 3 2 2 2 2 3 3 4 4 5 5 6 7 7 7 7 7 7 7 5 4 5 5 5 5 5 5 6 6 7 7 7 9 11 10 10 10 10 10 10 11 11 11 12 13 13 13 13
18 18 18 18 19 20 20 20 20 20 19 19 18 16 17 16 15 13 12 13 12 11 11 11 10 9 9 8 8 7 6 5 5 4 4 4 3 2 2 2 3 3 4 4 4 5 5 6 7 8 9 9 8 7 7 6 5 4 4 5 4 4 5 6 7 7 8 8 7 8 12 14 12 11 11 11 10 11 12 12 11 12 13 12 12
18 19 18 18 19 20 20 20 20 20 19 19 18 17 16 15 15 14 13 13 12 12 12 11 10 9 9 8 8 7 6 5 5 4 4 3 2 2 2 3 3 4 4 4 4 5 5 5 7 8 9 9 8 7 7 6 5 4 4 4 4 5 5 6 7 7 8 8 8 8 11 14 15 13 12 11 10 10 11 12 12 12 13 13 12
18 20 18 18 20 20 20 21 21 20 20 19 17 17 16 15 15 14 13 13 13 13 12 11 10 9 9 8 7 7 6 6 5 4 3 3 2 2 2 3 4 4 5 5 5 5 5 5 6 7 8 8 7 6 6 5 5 4 4 4 4 5 5 6 6 7 8 8 9 9 9 11 14 15 14 13 14 14 13 11 10 9 11 12 11
19 19 17 17 20 20 20 21 21 20 20 19 18 17 16 16 15 14 13 13 14 14 13 11 10 9 8 7 7 7 7 6 5 4 3 2 2 2 3 3 4 5 5 5 5 6 6 6 7 7 7 7 6 6 5 4 4 4 4 4 4 5 6 6 6 7 8 9 9 9 9 10 11 13 14 16 17 19 17 15 13 11 11 11 10
18 18 17 18 19 19 19 20 21 20 19 19 18 17 17 16 15 14 14 14 14 14 12 11 10 8 8 7 7 7 7 6 5 4 2 2 2 3 3 3 4 5 4 5 5 6 6 7 7 7 7 6 5 5 5 5 5 4 4 4 4 5 6 6 7 8 9 9 9 9 10 10 10 11 12 14 16 20 20 18 16 15 12 11 10
15 17 18 19 19 18 19 20 21 21 19 19 18 17 17 16 15 14 14 14 15 13 12 11 9 8 8 7 7 7 7 6 5 4 3 2 2 3 2 3 4 5 5 5 6 5 6 6 7 8 7 6 5 5 5 5 5 4 3 4 4 5 6 6 7 9 9 8 8 10 10 10 11 11 12 12 13 18 21 19 17 17 15 13 12
15 17 18 19 19 18 18 19 21 21 20 19 18 16 16 16 15 14 14 15 14 13 11 11 9 8 8 7 7 7 6 6 5 3 2 2 2 2 2 3 5 5 5 5 6 5 6 6 7 7 7 6 6 5 5 4 4 3 3 4 4 4 6 6 7 9 8 7 9 10 11 12 12 13 13 12 12 14 18 20 19 18 17 16 15
15 17 18 19 19 18 18 19 21 22 20 19 18 16 16 16 15 15 15 15 13 12 11 10 9 9 8 7 7 7 6 6 5 3 3 3 3 2 2 3 5 5 5 5 5 5 6 6 6 6 7 7 6 6 6 5 4 2 3 4 4 5 6 6 7 7 7 7 8 9 11 12 13 14 13 13 13 13 15 18 17 17 18 18 17
15 16 18 18 18 18 18 18 20 21 19 19 18 16 16 16 15 15 15 14 12 11 11 10 9 8 7 7 7 6 5 5 5 4 3 3 3 2 2 4 5 5 5 5 4 5 6 6 6 6 6 7 7 7 6 5 4 2 2 3 4 5 5 5 7 7 6 7 8 9 10 11 13 14 14 13 14 14 14 15 14 14 16 18 19
17 17 18 17 16 16 17 17 19 19 18 18 18 17 16 16 15 15 14 13 11 10 10 9 8 8 8 7 6 6 5 5 4 4 4 4 3 2 3 3 4 4 4 4 4 5 6 6 6 6 6 6 6 7 7 5 3 1 2 3 4 5 6 6 7 7 6 6 7 9 10 11 12 13 13 13 14 14 14 14 14 13 14 16 17
18 18 18 17 17 16 17 18 18 19 18 18 18 17 16 16 15 15 14 13 11 10 10 9 9 8 7 7 6 6 5 5 4 4 4 4 3 3 3 4 4 4 4 5 6 6 6 6 6 6 7 6 6 7 7 6 3 1 2 3 4 5 6 6 7 7 6 6 7 9 10 11 12 12 12 13 13 14 14 14 14 14 14 14 15
18 19 19 18 18 18 18 18 18 19 18 18 19 18 17 16 16 15 14 13 12 11 10 9 9 8 7 7 6 6 6 5 4 4 4 4 3 3 3 4 4 4 5 5 6 6 6 6 6 6 6 6 7 8 9 6 2 1 2 4 5 4 4 5 7 8 7 7 7 8 10 11 12 12 13 13 13 14 14 14 14 14 15 15 14
19 19 19 19 20 19 18 19 19 20 20 19 19 18 17 16 15 15 14 14 13 12 10 10 9 8 7 6 6 7 7 5 5 4 4 3 3 3 4 4 4 4 5 5 6 6 6 6 6 5 4 5 6 8 11 8 4 2 1 4 5 4 3 4 6 8 8 8 8 8 9 11 13 13 12 13 14 14 14 14 14 14 14 15 14
18 20 20 20 21 20 20 20 21 22 21 20 19 18 17 15 14 15 15 15 14 12 11 10 9 8 7 6 7 7 7 6 5 4 3 3 3 3 4 4 4 5 5 5 5 6 6 6 7 6 4 4 5 8 12 11 8 5 3 2 2 3 5 3 5 7 7 8 8 8 8 10 12 12 12 13 13 13 13 14 14 14 14 15 14
19 21 21 22 22 22 22 22 22 22 21 21 19 18 17 16 14 15 16 15 12 11 11 10 9 8 7 7 7 8 7 6 5 4 3 3 3 4 4 4 4 5 5 5 5 6 6 6 6 6 5 4 4 7 10 11 12 8 3 2 1 1 2 1 3 4 5 7 8 8 8 10 11 11 12 13 13 13 13 14 14 14 14 15 14
20 21 23 23 22 23 22 22 22 21 20 20 19 18 17 16 16 16 15 13 11 11 12 11 10 9 8 8 8 7 6 6 5 4 3 3 4 4 4 4 5 5 5 5 5 5 6 5 5 5 6 5 4 5 7 9 12 12 9 4 1 1 3 5 4 2 4 4 6 7 8 9 10 11 12 14 14 14 14 14 15 14 14 15 15
21 22 24 23 22 23 23 22 22 21 20 19 19 19 18 17 19 17 16 15 14 14 14 13 12 10 10 10 8 8 7 6 5 4 3 4 4 5 5 5 5 6 6 5 6 5 5 5 5 5 5 6 5 4 6 7 9 11 11 9 7 5 5 6 5 1 3 4 4 6 8 9 10 11 13 14 14 14 14 14 15 14 13 15 15
21 23 25 24 23 23 24 22 21 20 20 20 21 21 18 17 18 18 17 16 16 15 14 13 13 12 11 11 10 9 8 6 5 4 4 4 4 5 5 6 6 6 6 6 6 5 5 6 6 5 6 6 5 5 5 5 6 8 9 9 8 7 7 6 5 3 1 2 4 5 8 9 9 11 12 12 13 14 14 14 15 14 13 14 15
20 22 25 25 23 23 22 20 19 19 19 20 22 22 19 18 19 18 16 16 15 14 13 13 13 13 12 12 11 9 8 6 5 5 4 4 5 5 6 6 6 6 6 6 5 5 5 6 6 6 7 7 6 6 6 6 6 6 6 6 6 5 6 6 5 5 4 2 2 5 7 7 7 10 11 10 11 13 13 14 15 14 13 14 15
21 23 26 23 22 22 19 17 16 17 19 20 22 23 23 22 20 18 17 16 15 14 14 14 13 14 14 14 12 11 9 7 6 5 5 5 5 6 6 7 7 6 6 6 6 6 7 6 6 6 7 7 7 7 6 7 7 7 5 5 4 3 3 4 4 5 4 3 2 4 6 5 5 9 11 9 10 11 12 13 14 15 14 14 15
19 21 23 20 24 23 19 19 18 17 19 21 23 25 26 25 20 16 16 17 16 15 15 15 15 16 16 15 14 12 10 8 7 6 5 5 6 7 7 7 7 6 6 6 6 7 7 7 7 7 7 7 8 8 8 8 8 8 7 5 5 3 2 3 4 4 3 3 3 3 5 5 4 7 9 8 9 11 12 14 15 15 15 15 15
18 18 17 23 31 26 22 24 22 19 20 21 24 27 27 23 18 15 16 16 16 15 16 16 17 18 18 17 16 14 11 9 8 6 6 6 7 8 8 7 7 7 6 6 6 7 7 6 7 7 8 8 8 8 9 9 9 8 8 7 6 5 4 4 4 5 4 3 3 3 4 4 4 7 8 7 8 11 13 14 15 16 15 15 15
Wind_Direction
158 156 155 173 176 176 171 163 166 158 160 159 158 160 157 150 146 145 143 141 140 140 139 139 138 137 136 135 133 130 127 122 121 119 119 118 115 112 110 109 107 106 105 107 107 107 107 101 96 91 87 86 85 94 100 97 92 91 89 89 87 86 86 85 82 80 74 64 52 36 28 21 16 15 14 10 3 356 359 14 54 58 9 305 318
154 155 155 172 175 175 171 165 166 159 160 161 161 160 158 154 151 150 146 144 143 143 142 141 138 136 136 135 132 128 125 122 122 121 120 118 115 113 111 109 106 107 108 109 110 109 107 101 95 89 89 90 89 97 102 99 97 96 94 92 88 84 80 75 73 67 61 50 38 36 31 27 26 24 25 20 13 5 10 36 82 71 327 287 327
148 152 154 170 175 175 172 166 165 160 160 162 163 159 158 156 154 152 147 146 146 145 143 139 135 133 133 131 130 127 124 122 123 123 121 119 116 113 110 107 105 107 110 111 111 109 107 102 98 94 93 95 96 102 107 107 104 101 97 89 79 74 70 65 63 57 55 46 41 48 31 21 23 24 35 29 24 27 25 35 89 78 318 295 331
146 148 154 169 174 176 172 167 165 162 161 163 162 158 158 155 153 151 148 147 146 144 141 137 133 131 129 128 129 127 125 124 126 124 121 117 114 112 108 105 105 105 107 110 110 108 105 100 101 101 97 96 98 104 110 112 108 103 95 81 69 61 55 47 43 36 37 30 39 61 34 19 17 13 30 34 32 39 31 27 18 358 329 321 320
145 146 155 166 170 174 173 167 166 162 162 164 161 159 158 155 154 151 150 147 144 142 139 137 134 132 128 126 128 129 129 127 127 124 121 119 117 115 110 108 106 103 104 107 107 106 103 100 101 103 102 100 100 104 107 108 106 100 89 72 60 48 40 30 24 17 17 17 40 63 49 55 35 359 17 35 36 36 32 25 8 355 342 328 329
145 147 154 162 166 173 173 169 166 164 163 164 161 159 158 157 157 154 152 148 144 141 140 139 135 132 128 127 129 134 134 131 129 126 125 126 123 119 113 111 108 102 100 99 97 99 102 106 104 102 103 103 104 107 111 113 108 96 81 63 51 38 31 21 17 13 11 14 31 41 34 50 67 359 7 30 32 29 26 14 6 360 350 338 355
144 147 154 161 166 172 174 170 167 165 163 163 162 159 160 160 159 158 153 148 147 144 142 140 135 132 130 130 134 138 137 135 133 129 129 128 127 121 115 113 109 103 97 91 87 87 90 96 98 99 105 107 109 113 122 129 124 106 83 63 48 34 26 20 16 10 13 12 359 6 38 39 64 15 1 25 31 24 17 9 12 1 354 346 12
145 148 155 161 167 173 174 171 168 166 164 162 162 160 159 160 161 159 153 150 149 145 142 138 135 133 133 134 139 145 142 138 137 133 129 128 129 124 119 115 110 104 96 88 85 84 85 87 87 90 100 109 111 113 122 130 133 121 96 70 45 31 25 21 15 11 20 18 332 355 19 22 54 28 357 17 28 26 13 12 12 353 354 351 7
148 150 156 161 167 176 173 171 170 166 163 160 161 160 157 161 164 159 154 153 150 146 143 140 137 138 139 136 140 148 146 141 140 137 131 128 128 126 123 119 113 106 96 89 85 86 86 85 86 88 97 106 109 109 115 121 122 114 96 71 42 30 24 22 22 22 20 356 340 9 9 4 32 28 351 6 22 25 16 20 6 333 339 342 353
149 151 157 159 168 176 173 171 170 166 162 160 161 157 158 164 163 157 155 153 150 148 146 143 143 144 143 140 141 144 145 145 142 141 139 134 129 125 124 122 118 110 99 91 87 87 86 85 87 92 98 103 107 108 109 110 108 103 87 66 34 25 20 22 28 23 13 339 345 355 1 7 17 23 343 359 15 16 14 23 10 303 314 329 346
148 150 156 158 170 177 171 171 168 165 162 159 160 157 160 163 159 158 157 154 154 153 149 148 149 148 145 143 143 142 143 146 146 146 146 144 137 127 123 123 121 118 108 98 94 91 90 88 90 95 100 101 103 105 106 103 98 93 74 50 19 11 11 17 20 10 5 4 6 343 326 354 12 327 332 350 2 4 4 4 358 343 339 343 352
148 149 153 158 174 177 169 170 167 164 162 159 161 160 160 160 159 160 159 159 158 155 154 156 153 149 146 142 145 144 142 145 153 156 153 150 142 133 130 130 127 128 123 111 102 98 96 93 93 94 97 98 100 102 101 102 97 90 70 23 352 353 353 7 6 343 353 5 5 358 324 338 339 299 323 340 345 351 350 347 346 344 344 346 346
148 149 152 155 170 176 170 170 166 164 161 160 162 161 160 159 161 162 163 165 160 158 160 161 157 151 148 145 145 145 145 148 155 159 159 156 148 146 143 137 136 136 134 125 113 106 103 98 96 94 94 94 93 97 98 101 102 95 76 339 328 333 337 353 348 324 335 345 343 340 322 325 305 298 318 329 330 334 333 333 333 330 332 332 331
147 149 153 154 164 173 172 169 165 164 161 160 162 161 162 161 163 166 168 168 164 164 165 163 158 154 151 147 146 149 152 153 155 155 157 158 157 162 156 138 137 138 138 136 128 119 112 106 101 96 93 93 91 94 97 98 99 343 305 311 313 317 327 338 324 312 320 320 319 312 309 303 289 303 316 318 318 318 317 319 318 316 317 317 317
146 149 154 156 162 170 174 168 164 163 161 161 162 163 164 164 166 170 171 170 171 170 168 163 158 154 152 149 149 155 155 153 155 153 156 159 160 167 166 144 137 142 146 146 143 134 123 116 108 101 94 90 90 87 92 86 309 293 298 302 307 310 320 322 302 303 311 305 308 303 303 289 284 314 327 316 314 310 308 306 303 297 296 298 299
147 151 154 158 162 167 171 169 166 163 162 164 164 166 167 168 170 172 175 175 176 174 166 156 153 151 151 155 157 160 157 156 160 157 160 164 162 169 176 165 152 150 149 151 152 146 135 127 114 105 96 83 75 58 45 341 314 296 295 296 303 306 311 316 300 300 303 301 306 300 302 293 289 317 332 321 314 305 302 298 296 288 279 279 282
150 154 156 160 164 165 168 170 172 167 165 167 167 168 169 172 174 175 177 175 174 170 161 150 149 149 149 154 156 157 157 159 163 160 156 160 162 167 173 167 154 147 144 150 157 156 148 139 128 116 99 49 10 3 348 338 317 307 306 301 304 304 305 310 300 294 297 300 302 297 302 299 296 314 324 319 312 301 297 293 293 289 282 277 280
154 158 160 161 165 167 167 169 171 169 168 169 170 172 173 174 176 177 175 169 167 165 157 145 141 140 136 134 135 136 136 138 144 145 142 149 154 160 164 159 154 150 148 153 158 160 158 157 157 172 233 284 287 287 299 306 309 307 305 305 305 302 302 305 297 290 296 297 297 302 301 294 301 314 319 316 311 302 295 290 289 287 283 279 279
157 161 163 163 166 168 168 169 170 169 169 170 173 175 176 176 177 176 169 165 162 158 150 140 134 128 124 121 118 115 112 112 113 115 121 129 134 140 147 145 147 148 150 153 152 154 154 157 159 165 221 263 284 294 300 300 303 302 303 305 305 306 308 307 299 294 301 297 299 309 299 295 309 317 318 317 314 308 300 294 290 285 281 276 275
159 163 167 167 169 170 170 171 171 171 170 170 173 173 175 175 177 174 165 163 157 152 147 139 132 125 123 117 108 106 103 100 100 103 108 114 117 119 123 124 126 129 134 136 136 139 140 143 148 157 216 294 297 302 304 306 303 305 307 305 311 316 313 304 300 301 303 299 304 308 297 300 311 314 313 314 310 308 303 298 293 288 283 276 273
161 167 172 173 173 173 172 172 173 173 171 171 171 170 173 173 172 171 164 161 155 151 146 137 130 127 124 110 105 114 112 103 104 106 105 107 113 116 117 119 121 122 126 129 131 135 140 147 153 191 310 305 310 316 314 320 317 309 306 308 315 315 306 305 306 307 305 303 308 307 302 305 310 310 309 307 304 304 301 299 295 292 286 277 272
164 171 176 177 176 176 175 174 174 173 172 169 169 168 168 167 164 161 159 158 152 146 142 137 135 135 126 114 119 131 125 120 122 121 114 113 118 120 121 121 124 125 127 129 130 137 147 175 253 306 313 328 339 334 313 321 326 323 324 323 322 312 312 316 313 313 312 315 319 313 311 313 313 312 310 307 304 301 301 301 297 292 285 278 274
166 174 177 179 178 178 177 175 174 172 172 169 168 165 161 163 160 155 155 154 150 145 144 146 145 144 139 135 139 136 132 134 137 139 138 135 129 125 127 129 129 128 127 123 115 122 128 329 333 330 339 351 350 330 318 324 326 330 335 330 322 317 320 320 317 319 318 325 324 313 315 315 313 312 310 308 304 302 301 303 300 293 287 283 279
171 178 177 180 180 179 178 176 174 171 172 171 169 163 159 163 160 158 159 156 156 153 154 154 152 153 149 147 144 142 143 141 143 142 139 140 135 128 128 131 132 118 107 106 89 34 6 348 348 352 351 346 339 334 336 336 329 326 324 320 321 321 322 320 322 323 321 328 321 312 316 314 312 310 307 306 303 302 301 302 301 296 293 290 287
176 182 178 181 182 180 178 176 173 173 173 172 170 163 160 164 162 164 163 160 161 159 159 157 157 157 151 152 150 148 147 145 151 152 151 153 145 136 131 135 145 119 81 81 54 356 352 340 340 347 344 339 342 343 340 336 332 326 320 322 326 323 326 326 326 326 324 329 318 312 319 318 313 309 304 303 301 302 302 302 301 299 298 295 293
180 185 180 180 183 180 178 176 173 174 176 174 171 163 162 166 164 168 165 162 163 161 162 160 160 159 156 156 154 154 154 156 164 166 162 155 146 145 146 146 143 121 77 47 17 359 352 346 342 344 344 343 343 339 335 335 333 327 324 328 330 328 332 329 328 329 327 333 323 316 324 325 320 315 307 303 301 302 305 306 305 306 306 301 299
182 186 182 178 182 182 178 177 173 175 177 175 170 164 166 167 162 168 169 165 164 164 165 164 164 163 161 160 159 161 161 165 170 165 159 150 144 142 145 144 117 82 60 25 10 2 354 352 348 345 343 339 335 334 332 329 326 325 324 329 333 333 333 331 330 331 330 344 338 328 337 339 333 329 321 316 311 312 316 316 314 316 316 309 307
184 184 181 176 181 181 179 180 176 176 178 175 173 168 168 164 159 168 172 168 166 168 168 166 167 166 166 165 163 168 169 170 169 162 158 146 138 137 142 128 86 55 35 19 8 1 357 354 348 342 336 332 329 329 327 322 317 318 322 329 336 338 340 339 340 342 343 359 358 345 353 355 345 341 334 331 328 329 331 326 323 322 323 321 317
186 182 179 176 179 180 179 181 178 178 178 176 175 171 167 162 161 170 171 170 171 170 169 167 168 168 170 169 167 175 176 168 163 163 157 141 134 138 132 91 62 39 23 16 13 5 358 352 346 340 332 328 326 325 326 320 315 323 331 338 348 353 358 360 357 360 358 7 13 357 359 4 357 351 346 343 342 348 346 337 333 330 327 328 325
187 181 180 177 178 179 179 181 179 180 180 178 177 171 168 164 164 171 170 173 175 172 170 170 171 172 173 173 175 181 180 166 162 163 150 138 138 137 103 69 48 34 23 18 18 10 0 355 350 341 333 329 328 330 332 325 324 342 351 355 6 11 15 16 7 7 4 7 16 6 1 3 1 358 355 350 349 357 359 350 346 343 335 332 329
185 180 181 179 177 178 180 182 180 180 181 180 177 171 168 165 165 171 173 175 175 173 175 174 175 178 175 175 181 183 180 168 165 162 147 138 142 139 93 65 43 33 24 19 18 10 0 356 353 341 334 331 330 336 337 333 341 353 3 15 20 19 25 23 14 13 10 9 15 17 10 1 358 358 1 1 356 356 1 0 359 356 351 349 345
184 181 179 175 175 178 181 182 181 182 183 180 177 172 169 167 168 172 174 174 174 176 179 177 179 180 172 172 180 180 176 166 162 159 147 139 148 132 81 59 42 30 22 19 11 0 355 354 350 339 334 333 334 343 341 342 353 356 4 23 29 26 29 24 20 19 13 13 12 14 12 3 358 356 357 3 7 6 1 2 1 356 357 358 357
185 181 175 169 172 176 180 182 182 183 184 180 177 175 171 170 171 171 173 173 175 181 181 178 180 176 166 172 181 179 175 165 158 155 144 145 153 118 80 61 41 26 20 15 360 350 351 354 351 341 338 335 340 349 345 351 358 3 12 23 33 29 29 27 24 20 18 21 14 10 9 6 4 0 357 358 7 14 11 6 4 1 357 354 354
182 177 173 170 171 174 178 182 183 182 183 180 177 178 173 172 173 169 171 175 179 184 181 178 178 172 169 176 183 181 174 165 160 154 150 164 141 105 82 61 36 21 17 8 354 351 354 359 357 348 342 338 347 352 349 355 353 6 17 24 44 39 34 30 23 26 29 27 21 18 17 14 13 12 10 1 0 11 16 14 9 11 8 358 0
177 172 171 171 171 173 176 181 182 180 181 180 178 178 174 174 174 168 171 179 181 183 181 178 177 175 176 177 182 184 177 168 163 154 153 159 125 97 72 46 32 18 14 3 350 356 2 6 4 354 347 344 353 353 353 359 353 7 16 25 49 46 41 35 30 40 38 30 29 27 24 23 21 18 18 11 1 1 9 16 14 14 14 9 12
175 170 169 169 171 173 176 179 181 179 179 180 179 179 176 176 175 170 173 181 182 182 180 179 179 179 177 176 183 187 182 170 160 157 154 139 112 95 64 32 27 15 8 356 350 5 12 13 10 359 350 346 353 355 357 3 357 10 26 37 50 46 43 35 38 49 41 33 36 31 28 28 26 21 16 13 9 359 359 9 13 9 6 8 13
174 170 170 170 171 174 177 178 179 180 178 180 182 181 180 179 176 172 174 180 182 182 181 180 181 182 177 178 184 187 184 171 159 160 152 132 115 94 64 34 23 12 360 354 359 17 20 17 11 3 353 344 351 357 357 0 358 10 39 48 52 53 47 33 40 52 40 38 36 27 26 23 21 20 15 10 9 4 357 2 8 2 353 359 7
180 178 176 173 173 175 178 179 179 180 179 180 182 183 183 181 178 173 173 177 181 181 181 182 185 183 178 180 184 191 187 170 159 158 149 131 119 94 61 36 20 8 358 358 15 27 26 22 12 4 356 347 350 354 351 351 346 357 57 62 54 54 52 38 46 52 40 40 32 21 18 13 12 11 10 10 6 5 3 0 5 2 350 354 0
191 188 184 179 177 176 176 178 178 180 180 180 183 185 184 181 176 170 169 175 180 182 181 185 192 186 180 181 185 194 186 166 158 155 148 135 120 91 53 33 17 10 7 8 20 27 26 22 13 4 357 352 354 349 343 341 339 9 80 90 73 59 51 41 48 52 43 37 28 19 16 11 9 6 5 9 8 5 5 2 3 2 354 356 358
194 191 188 184 182 177 173 175 178 178 178 180 184 186 183 178 172 167 168 175 179 182 184 189 194 188 182 184 189 192 179 162 156 150 143 131 111 77 47 31 21 21 25 23 23 26 24 18 10 3 357 359 2 353 343 335 339 71 143 131 100 77 62 49 43 45 41 28 24 23 19 14 10 8 6 7 9 8 6 4 2 0 356 355 358
193 191 189 187 183 178 174 175 176 176 178 182 185 184 181 177 173 169 171 177 180 179 183 191 190 187 186 185 190 188 171 159 153 146 137 120 96 66 43 33 35 40 40 36 32 30 25 16 3 356 360 4 6 1 349 332 322 92 167 158 133 104 79 60 42 39 37 28 29 29 20 16 13 8 8 9 9 9 8 5 2 0 357 354 356
191 189 188 188 184 180 177 176 176 177 180 184 184 183 182 179 175 173 174 178 181 178 182 189 184 182 187 185 187 180 164 156 151 143 130 111 87 61 48 43 47 50 47 44 40 32 25 17 3 356 2 6 12 11 3 356 355 359 272 186 162 154 145 100 62 51 41 31 31 30 22 16 12 8 8 10 9 9 8 5 2 0 358 356 356
191 188 187 186 184 183 181 178 178 179 181 184 183 180 177 174 172 173 174 178 182 180 180 182 179 179 184 185 184 171 157 154 151 140 124 106 83 64 61 59 55 54 52 46 41 33 24 16 8 1 351 3 30 25 19 16 8 344 273 223 169 183 188 155 79 70 61 47 36 30 28 18 12 10 11 10 8 7 5 3 2 0 359 358 357
192 189 186 183 183 184 183 180 180 180 180 180 180 175 170 169 172 173 174 176 177 173 171 174 176 177 180 183 178 162 154 155 148 136 126 108 87 78 75 74 66 59 58 52 45 36 25 17 15 10 353 3 45 39 32 28 17 5 332 288 288 234 167 47 33 86 88 58 42 34 30 19 13 15 14 11 7 4 2 1 1 1 0 360 360
194 190 185 181 183 184 182 179 179 180 177 173 174 171 166 168 171 171 171 170 168 167 173 176 174 172 175 177 169 157 155 154 144 134 125 108 95 92 87 87 79 69 67 60 52 38 27 24 25 23 11 11 34 45 44 40 32 26 19 9 314 316 37 359 341 107 109 58 39 37 32 20 15 17 14 12 8 4 3 1 2 2 1 2 3
196 190 186 183 183 181 177 175 175 174 169 167 168 164 164 170 169 168 171 169 167 174 179 178 172 170 172 168 160 159 160 152 143 134 123 115 105 98 94 94 89 80 73 63 56 47 37 37 31 29 29 23 26 44 50 52 48 42 38 39 36 25 11 341 326 34 113 86 52 38 30 20 19 18 12 10 8 5 5 3 2 2 2 5 5
196 191 189 187 183 177 170 170 170 168 165 165 167 163 163 172 174 176 179 174 169 177 182 177 170 166 165 165 162 161 159 150 143 132 121 119 107 98 99 99 96 88 80 70 63 58 50 48 42 38 41 36 36 45 45 47 54 52 52 53 49 41 23 3 350 339 346 81 65 48 31 20 25 23 12 9 7 5 4 3 3 2 3 6 6
195 191 192 189 178 167 163 166 168 168 167 166 171 175 175 179 186 186 182 174 169 173 175 168 163 160 162 167 164 158 156 151 143 132 120 118 110 103 104 104 101 91 82 78 74 72 67 58 54 51 52 49 48 52 47 40 48 54 54 57 59 57 42 27 9 345 329 341 47 50 26 20 40 31 16 11 8 5 5 4 3 4 5 7 8
197 191 193 187 164 153 155 165 175 175 171 169 175 184 186 187 192 188 177 172 167 167 165 158 161 166 167 169 164 158 157 153 143 133 124 120 114 110 112 109 102 91 83 86 85 80 77 70 65 63 63 61 55 57 58 51 50 50 44 46 50 63 68 46 17 360 349 339 358 25 10 8 48 36 20 15 12 10 8 6 6 7 7 7 9
199 192 191 169 145 146 155 169 184 180 173 175 178 187 193 191 192 186 174 167 163 166 163 159 168 174 169 167 164 160 157 150 141 134 128 124 120 117 118 113 102 92 87 89 88 82 80 79 76 73 71 71 66 63 65 62 58 51 41 40 41 40 50 47 27 14 8 350 339 10 15 8 35 36 23 15 14 14 13 11 10 10 10 9 9
196 193 176 139 138 154 171 179 184 179 178 182 180 187 196 194 190 185 171 161 161 169 171 170 176 176 170 168 165 161 157 150 143 138 133 130 126 124 122 114 101 95 92 91 88 86 86 84 82 80 76 74 74 72 68 65 64 59 51 49 48 42 37 32 22 7 6 6 346 11 34 29 45 43 28 17 17 18 17 16 14 13 12 10 11